Location: Grange Verzio
(44.5000°N, 6.9833°E)
Time: 17:03:42
(UTC+00:00)

Cosmos 1536 Rocket - Pass Details

Date: 01 February 2023
Orbit: 604 x 631 km, 82.5° (Epoch: 29 March)

Event Time Altitude Azimuth Distance (km) Brightness Sun altitude
Rises 17:42:47 0° 193° (SSW) 2,844 7.3 -11.3°
Reaches altitude 10° 17:45:00 10° 195° (SSW) 1,946 6.5 -11.7°
Maximum altitude 17:49:17 70° 280° (W) 647 3.8 -12.5°
Drops below altitude 10° 17:53:37 10° 4° (N) 1,967 6.0 -13.2°
Sets 17:55:52 0° 7° (N) 2,879 6.8 -13.6°
